#timestamp,LO_Frequency,Hit,StdDev 
1604397615.7,286046997.1,N
1604397635.5,286046997.7,N
1604397655.4,286046998.9,N
1604397675.2,286046996.6,N
1604397695.0,286046997.4,N
1604397696.0,286046997.4,N
1604397715.8,286046992.4,Y
1604397735.6,286046996.2,P
1604397755.5,286046995.5,P
1604397775.3,286046993.9,P
1604397795.1,286046997.4,N
1604397815.9,286046993.3,Y
1604397835.7,286047002.7,P
1604397855.6,286047001.6,N
1604397875.4,286046999.8,N
1604397895.2,286047001.6,N
1604397915.1,286047001.9,N
1604397916.0,286047001.9,N
1604397935.8,286047003.3,N
1604397955.6,286047002.7,N
1604397975.5,286047002.7,N
1604397995.3,286047000.1,N
1604398015.2,286047000.1,N
1604398035.9,286047002.4,N
1604398055.7,286047002.6,N
1604398075.6,286047004.4,N
1604398095.4,286047002.2,N
1604398115.2,286047001.9,N
1604398135.1,286047001.8,N
1604398136.0,286047001.8,N
1604398155.8,286047002.2,N
1604398175.7,286047002.2,N
1604398195.5,286047003.6,N
1604398215.3,286047006.0,Y
1604398235.2,286047000.3,P
1604398255.0,286046998.2,N
1604398255.9,286046998.2,N
1604398275.8,286046996.9,N
1604398295.6,286046996.8,N
1604398315.4,286046999.1,N
1604398335.3,286046995.6,N
1604398355.1,286046997.2,N
1604398375.8,286046998.7,N
1604398395.7,286046998.3,N
1604398415.5,286046998.5,N
1604398435.4,286047001.5,N
1604398455.2,286047007.6,Y
1604398475.0,286047005.5,P
1604398475.9,286047005.5,N
1604398525.8,286047003.7,E
1604398535.7,286047000.1,N
1604398555.6,286046997.1,P
1604398575.4,286047000.0,N
1604398595.2,286046999.8,N
1604398615.1,286047002.3,N
1604398616.0,286047002.3,N
1604398635.8,286047001.5,N
1604398655.7,286047003.4,N
1604398675.5,286047004.2,N
1604398695.3,286047001.6,N
1604398715.2,286047000.7,N
1604398735.0,286046997.7,N
1604398735.9,286046997.7,N
1604398755.7,286046995.6,N
1604398775.6,286046995.6,N
1604398795.4,286046997.9,N
1604398815.3,286046997.4,N
1604398835.1,286046995.6,N
1604398836.0,286046995.6,N
1604398855.8,286046996.0,N
1604398875.7,286046997.7,N
1604398895.5,286046998.0,N
1604398915.3,286046997.6,N
1604398935.2,286046993.6,N
1604398955.0,286046995.6,N
1604398955.9,286046995.6,N
1604398975.8,286046997.3,N
1604398995.6,286046999.4,N
1604399015.4,286046998.7,N
1604399035.3,286047001.2,N
1604399055.1,286047000.4,N
1604399075.8,286047000.7,N
1604399095.7,286047000.3,N
1604399115.5,286047000.0,N
1604399135.4,286047005.9,N
1604399155.2,286046999.9,N
1604399175.0,286047004.1,N
1604399175.9,286047004.1,N
1604399195.8,286047001.9,N
1604399215.6,286047000.9,N
1604399235.5,286046998.5,N
1604399255.3,286047001.4,N
1604399275.1,286047005.9,N
1604399295.9,286047004.0,N
1604399315.7,286047001.8,N
1604399335.5,286047003.4,N
1604399355.4,286047002.2,N
1604399375.2,286046998.2,N
1604399395.1,286047000.1,N
1604399396.0,286047000.1,N
1604399415.8,286047001.9,N
1604399435.6,286047004.3,N
1604399455.5,286047000.0,N
1604399475.3,286046999.9,N
1604399495.1,286047000.3,N
1604399515.9,286046999.7,N
1604399535.7,286047000.2,N
1604399555.6,286047003.5,N
1604399575.4,286047000.1,N
1604399595.2,286046998.1,N
1604399615.1,286047000.6,N
1604399616.0,286047000.6,N
1604399635.8,286047001.2,N
1604399655.6,286046996.6,N
1604399675.5,286046996.5,N
1604399695.3,286046997.2,N
1604399715.2,286046996.8,N
1604399735.9,286046997.7,N
1604399755.7,286046997.6,N
1604399775.6,286046997.1,N
1604399795.4,286046999.6,N
1604399815.2,286046997.0,N
1604399835.1,286046998.8,N
1604399836.0,286046998.8,N
1604399855.8,286046999.5,N
1604399875.7,286047000.9,N
1604399895.5,286046998.7,N
1604399915.3,286046999.5,N
1604399935.2,286046998.1,N
1604399955.0,286046996.7,N
1604399955.9,286046996.7,N
1604399975.8,286046997.6,N
1604399995.6,286047000.0,N
1604400015.4,286047000.0,N
1604400035.3,286047000.4,N
1604400055.1,286046996.6,N
1604400075.8,286046996.7,N
1604400095.7,286046998.8,N
1604400115.5,286047001.2,N
1604400135.4,286047003.9,N
1604400155.2,286047000.3,N
1604400175.0,286047000.6,N
1604400175.9,286047000.6,N
1604400195.8,286047002.0,N
1604400215.6,286047000.2,N
1604400235.4,286046998.7,N
1604400255.3,286047001.1,N
1604400275.1,286046996.5,N
1604400295.9,286046999.3,N
1604400315.7,286047001.0,N
1604400335.5,286047003.2,N
1604400355.4,286047005.6,N
1604400375.2,286047001.8,N
1604400395.0,286047001.5,N
1604400396.0,286047001.5,N
1604400415.8,286047001.3,N
1604400435.6,286046998.5,N
1604400455.5,286046999.5,N
1604400475.3,286046996.7,N
1604400495.1,286046999.0,N
1604400515.9,286046998.1,N
1604400535.7,286046999.7,N
1604400555.5,286046998.9,N
1604400575.4,286047001.0,N
1604400595.2,286046998.4,N
1604400615.1,286046998.3,N
1604400616.0,286046998.3,N
1604400635.8,286046999.4,N
1604400655.6,286046997.1,N
1604400675.5,286046993.8,Y
1604400695.3,286046993.6,P
1604400715.2,286046994.0,N
1604400735.9,286046995.3,N
1604400755.7,286046994.5,N
1604400775.6,286046994.6,N
1604400795.4,286046994.5,N
1604400815.2,286046993.1,Y
1604400835.1,286046999.5,P
1604400836.0,286046999.5,N
1604400855.8,286046997.1,N
1604400875.7,286046997.3,N
1604400895.5,286046998.1,N
1604400915.3,286047001.1,N
1604400935.2,286046997.0,N
1604400955.0,286046999.3,N
1604400955.9,286046999.3,N
1604400975.8,286046996.6,N
1604400995.6,286046998.1,N
1604401015.4,286047000.8,N
1604401035.3,286046997.1,N
1604401055.1,286047000.4,N
1604401075.8,286047001.9,N
1604401095.7,286047001.5,N
1604401115.5,286047001.0,N
1604401135.4,286047000.5,N
1604401155.2,286047000.6,N
1604401175.0,286047000.2,N
1604401175.9,286047000.2,N
1604401195.8,286047000.3,N
